When you browse on this site, cookies collect data to enhance your experience and personalize the content and advertising you see.
Visit our Privacy Policy to learn more. By continuing to use the site, you agree to this use of cookies and data.
  • In Latvia
  • List of Countries
  • For 7 days
  • Water Temperature
  • Weather Map
  • Weather Widgets
  • user-avatar
    Login

    Hourly Weather Malanje

    Today, 31 May, Sunday

    Time Temperature Precipitation Wind Pressure Humidity
    00:00 +20°C° 0 mm 1 mps 666 mmHg 43%
    01:00 +19°C° 0 mm 1 mps 666 mmHg 44%
    02:00 +19°C° 0 mm 1 mps 665 mmHg 44%
    03:00 +18°C° 0 mm 1 mps 665 mmHg 45%
    04:00 +16°C° 0 mm 1 mps 665 mmHg 46%
    05:00 +16°C° 0 mm 2 mps 665 mmHg 48%
    06:00 +16°C° 0 mm 2 mps 666 mmHg 51%
    07:00 +17°C° 0 mm 2 mps 667 mmHg 54%
    08:00 +20°C° 0 mm 2 mps 667 mmHg 49%
    09:00 +24°C° 0 mm 3 mps 668 mmHg 44%
    10:00 +27°C° 0 mm 3 mps 668 mmHg 39%
    11:00 +29°C° 0 mm 3 mps 668 mmHg 36%
    12:00 +30°C° 0 mm 3 mps 668 mmHg 32%
    13:00 +32°C° 0 mm 2 mps 668 mmHg 29%
    14:00 +32°C° 0 mm 2 mps 667 mmHg 30%
    15:00 +31°C° 0 mm 2 mps 666 mmHg 30%
    16:00 +31°C° 0 mm 2 mps 666 mmHg 31%
    17:00 +28°C° 0 mm 2 mps 666 mmHg 37%
    18:00 +26°C° 0 mm 1 mps 666 mmHg 43%
    19:00 +23°C° 0 mm 1 mps 666 mmHg 49%
    20:00 +22°C° 0 mm 1 mps 666 mmHg 49%
    21:00 +22°C° 0 mm 1 mps 666 mmHg 50%
    22:00 +21°C° 0 mm 1 mps 666 mmHg 50%
    23:00 +21°C° 0 mm 1 mps 666 mmHg 50%

    Tomorrow, 1 June, Monday

    Time Temperature Precipitation Wind Pressure Humidity
    00:00 +20°C° 0 mm 1 mps 666 mmHg 49%
    01:00 +20°C° 0 mm 1 mps 666 mmHg 49%
    02:00 +19°C° 0 mm 1 mps 666 mmHg 51%
    03:00 +19°C° 0 mm 1 mps 666 mmHg 52%
    04:00 +18°C° 0 mm 1 mps 665 mmHg 54%
    05:00 +18°C° 0 mm 2 mps 666 mmHg 56%
    06:00 +18°C° 0 mm 2 mps 666 mmHg 58%
    07:00 +18°C° 0 mm 2 mps 667 mmHg 60%
    08:00 +21°C° 0 mm 3 mps 667 mmHg 53%
    09:00 +25°C° 0 mm 3 mps 668 mmHg 46%
    10:00 +28°C° 0 mm 4 mps 668 mmHg 39%
    11:00 +29°C° 0 mm 4 mps 668 mmHg 35%
    12:00 +31°C° 0 mm 3 mps 668 mmHg 32%
    13:00 +33°C° 0 mm 3 mps 668 mmHg 29%
    14:00 +31°C° 0 mm 2 mps 667 mmHg 30%
    15:00 +31°C° 0 mm 2 mps 666 mmHg 31%
    16:00 +31°C° 0 mm 2 mps 666 mmHg 33%
    17:00 +29°C° 0 mm 2 mps 666 mmHg 36%
    18:00 +27°C° 0 mm 1 mps 666 mmHg 40%
    19:00 +25°C° 0 mm 1 mps 666 mmHg 44%
    20:00 +24°C° 0 mm 1 mps 667 mmHg 44%
    21:00 +24°C° 0 mm 1 mps 667 mmHg 45%
    22:00 +23°C° 0 mm 1 mps 667 mmHg 46%
    23:00 +23°C° 0 mm 1 mps 667 mmHg 48%

    Day after tomorrow, 2 June, Tuesday

    Time Temperature Precipitation Wind Pressure Humidity
    00:00 +22°C° 0 mm 1 mps 666 mmHg 49%
    01:00 +22°C° 0 mm 1 mps 666 mmHg 51%
    02:00 +21°C° 0 mm 1 mps 666 mmHg 54%
    03:00 +21°C° 0 mm 1 mps 666 mmHg 57%
    04:00 +18°C° 0 mm 0 mps 666 mmHg 60%
    05:00 +20°C° 0 mm 1 mps 666 mmHg 61%
    06:00 +20°C° 0 mm 1 mps 667 mmHg 62%
    07:00 +20°C° 0 mm 1 mps 667 mmHg 64%
    08:00 +23°C° 0 mm 2 mps 668 mmHg 55%
    09:00 +25°C° 0 mm 3 mps 668 mmHg 46%
    10:00 +28°C° 0 mm 3 mps 669 mmHg 37%
    11:00 +29°C° 0 mm 3 mps 668 mmHg 34%
    12:00 +31°C° 0 mm 3 mps 668 mmHg 31%
    13:00 +32°C° 0 mm 2 mps 668 mmHg 28%
    14:00 +31°C° 0 mm 2 mps 667 mmHg 31%
    15:00 +30°C° 0 mm 1 mps 666 mmHg 33%
    16:00 +29°C° 0 mm 1 mps 666 mmHg 36%
    17:00 +27°C° 0 mm 1 mps 666 mmHg 40%
    18:00 +23°C° 0 mm 0 mps 665 mmHg 43%
    19:00 +21°C° 0 mm 0 mps 665 mmHg 46%
    20:00 +20°C° 0 mm 0 mps 666 mmHg 47%
    21:00 +20°C° 0 mm 0 mps 666 mmHg 48%
    22:00 +19°C° 0 mm 0 mps 666 mmHg 49%
    23:00 +19°C° 0 mm 0 mps 666 mmHg 51%

    3 June, Wednesday

    Time Temperature Precipitation Wind Pressure Humidity
    00:00 +18°C° 0 mm 0 mps 666 mmHg 54%
    01:00 +18°C° 0 mm 0 mps 665 mmHg 56%
    02:00 +19°C° 0 mm 1 mps 665 mmHg 58%
    03:00 +19°C° 0 mm 1 mps 665 mmHg 61%
    04:00 +18°C° 0 mm 1 mps 664 mmHg 64%
    05:00 +18°C° 0 mm 1 mps 665 mmHg 63%
    06:00 +18°C° 0 mm 1 mps 665 mmHg 62%
    07:00 +19°C° 0 mm 1 mps 666 mmHg 61%
    08:00 +22°C° 0 mm 1 mps 666 mmHg 52%
    09:00 +25°C° 0 mm 2 mps 667 mmHg 44%
    10:00 +28°C° 0 mm 2 mps 668 mmHg 36%
    11:00 +30°C° 0 mm 2 mps 668 mmHg 33%
    12:00 +31°C° 0 mm 2 mps 667 mmHg 30%
    13:00 +34°C° 0 mm 2 mps 667 mmHg 27%
    14:00 +32°C° 0 mm 1 mps 666 mmHg 28%
    15:00 +31°C° 0 mm 1 mps 666 mmHg 29%
    16:00 +31°C° 0 mm 1 mps 665 mmHg 31%
    17:00 +29°C° 0 mm 1 mps 665 mmHg 35%
    18:00 +27°C° 0 mm 1 mps 665 mmHg 39%
    19:00 +23°C° 0 mm 0 mps 665 mmHg 43%
    20:00 +22°C° 0 mm 0 mps 665 mmHg 45%
    21:00 +21°C° 0 mm 0 mps 665 mmHg 48%
    22:00 +20°C° 0 mm 0 mps 665 mmHg 50%
    23:00 +21°C° 0 mm 1 mps 665 mmHg 52%

    4 June, Thursday

    Time Temperature Precipitation Wind Pressure Humidity
    00:00 +21°C° 0 mm 1 mps 665 mmHg 54%
    01:00 +20°C° 0 mm 1 mps 665 mmHg 56%
    02:00 +19°C° 0 mm 1 mps 665 mmHg 60%
    03:00 +19°C° 0 mm 1 mps 664 mmHg 64%
    04:00 +18°C° 0 mm 1 mps 664 mmHg 68%
    05:00 +18°C° 0 mm 1 mps 665 mmHg 65%
    06:00 +19°C° 0 mm 1 mps 665 mmHg 63%
    07:00 +19°C° 0 mm 1 mps 666 mmHg 60%
    08:00 +22°C° 0 mm 1 mps 667 mmHg 51%
    09:00 +25°C° 0 mm 2 mps 667 mmHg 42%
    10:00 +28°C° 0 mm 2 mps 668 mmHg 34%
    11:00 +30°C° 0 mm 2 mps 668 mmHg 31%
    12:00 +31°C° 0 mm 2 mps 667 mmHg 28%
    13:00 +34°C° 0 mm 2 mps 667 mmHg 26%
    14:00 +34°C° 0 mm 2 mps 667 mmHg 26%
    15:00 +32°C° 0 mm 1 mps 666 mmHg 27%
    16:00 +32°C° 0 mm 1 mps 665 mmHg 28%
    17:00 +29°C° 0 mm 1 mps 665 mmHg 34%
    18:00 +26°C° 0 mm 1 mps 665 mmHg 40%
    19:00 +21°C° 0 mm 0 mps 665 mmHg 46%
    20:00 +21°C° 0 mm 0 mps 665 mmHg 47%
    21:00 +20°C° 0 mm 0 mps 666 mmHg 48%
    22:00 +20°C° 0 mm 0 mps 666 mmHg 49%
    23:00 +21°C° 0 mm 1 mps 666 mmHg 51%

    5 June, Friday

    Time Temperature Precipitation Wind Pressure Humidity
    00:00 +21°C° 0 mm 1 mps 665 mmHg 53%
    01:00 +20°C° 0 mm 1 mps 665 mmHg 55%
    02:00 +19°C° 0 mm 1 mps 665 mmHg 58%
    03:00 +19°C° 0 mm 1 mps 665 mmHg 62%
    04:00 +18°C° 0 mm 1 mps 665 mmHg 65%
    05:00 +18°C° 0 mm 1 mps 666 mmHg 63%
    06:00 +19°C° 0 mm 1 mps 666 mmHg 60%
    07:00 +18°C° 0 mm 2 mps 667 mmHg 58%
    08:00 +21°C° 0 mm 2 mps 667 mmHg 50%
    09:00 +25°C° 0 mm 2 mps 668 mmHg 42%
    10:00 +28°C° 0 mm 3 mps 669 mmHg 33%
    11:00 +30°C° 0 mm 2 mps 668 mmHg 31%
    12:00 +31°C° 0 mm 2 mps 668 mmHg 28%
    13:00 +34°C° 0 mm 2 mps 668 mmHg 25%
    14:00 +34°C° 0 mm 2 mps 667 mmHg 25%
    15:00 +32°C° 0 mm 2 mps 667 mmHg 25%
    16:00 +32°C° 0 mm 2 mps 666 mmHg 25%
    17:00 +29°C° 0 mm 1 mps 666 mmHg 30%
    18:00 +27°C° 0 mm 1 mps 666 mmHg 36%
    19:00 +24°C° 0 mm 1 mps 666 mmHg 41%
    20:00 +23°C° 0 mm 1 mps 666 mmHg 43%
    21:00 +20°C° 0 mm 0 mps 666 mmHg 44%
    22:00 +19°C° 0 mm 0 mps 666 mmHg 46%
    23:00 +19°C° 0 mm 0 mps 666 mmHg 48%
    Show more